Weather History for KTDF - October, 2013

Change the Weather History Date:

Monday, October 7, 2013

  Actual Average Record
Temperature  
Mean Temperature 66 °F -  
Max Temperature 71 °F 73 °F 87 °F (1981)
Min Temperature 60 °F 47 °F 30 °F (1988)
Growing Degree Days 16 (Base 50)    
Moisture  
Dew Point 66 °F    
Average Humidity 93    
Maximum Humidity 100    
Minimum Humidity 72    
Precipitation  
Precipitation 1.19 in - - ()
Sea Level Pressure  
Sea Level Pressure 29.93 in    
Wind  
Wind Speed 7 mph (SSW)    
Max Wind Speed 14 mph    
Max Gust Speed 22 mph    
Visibility 9 miles    
Events Rain    
Averages and records for this station are not official NWS values.
T = Trace of Precipitation, MM = Missing Value Source: NWS Daily Summary

Daily Weather History Graph

Daily Weather History Graph

Search for Another Location

Airport or City:

Trip Planner

Search our weather history database for the weather conditions in past years. The results will help you decide how hot, cold, wet, or windy it might be!

Date:

Astronomy

Oct. 07, 2013 Rise Set
Actual Time 7:16 AM EDT 6:50 PM EDT
Civil Twilight 6:50 AM EDT 7:16 PM EDT
Nautical Twilight 6:20 AM EDT 7:45 PM EDT
Astronomical Twilight 5:50 AM EDT 8:15 PM EDT
Moon 9:58 AM EDT (10/7) 8:39 PM EDT (10/7)
Length of Visible Light 12h 25m
Length of Day
11h 34m
Waxing Crescent, 8% of the Moon is Illuminated
Oct 7
Waxing Crescent
Oct 11
First Quarter
Oct 18
Full
Oct 26
Last Quarter
Nov 3
New

Hourly Weather History & Observations

Time (EDT) Temp. Dew Point Humidity Pressure Visibility Wind Dir Wind Speed Gust Speed Precip Events Conditions
12:15 AM 71.6 °F 69.8 °F 94% 29.97 in 10.0 mi South 10.4 mph - N/A   Overcast
12:35 AM 71.6 °F 68.0 °F 88% 29.96 in 10.0 mi South 8.1 mph 16.1 mph N/A   Overcast
12:55 AM 71.6 °F 68.0 °F 88% 29.96 in 10.0 mi South 5.8 mph - N/A   Overcast
1:15 AM 71.6 °F 68.0 °F 88% 29.96 in 10.0 mi South 8.1 mph - N/A   Overcast
1:35 AM 71.6 °F 68.0 °F 88% 29.96 in 10.0 mi South 6.9 mph - N/A   Overcast
1:55 AM 71.6 °F 68.0 °F 88% 29.95 in 10.0 mi South 8.1 mph - N/A   Overcast
2:15 AM 71.6 °F 69.8 °F 94% 29.94 in 10.0 mi South 6.9 mph - N/A   Overcast
2:35 AM 71.6 °F 68.0 °F 88% 29.93 in 10.0 mi South 6.9 mph - N/A   Overcast
2:55 AM 71.6 °F 69.8 °F 94% 29.92 in 10.0 mi South 6.9 mph - N/A   Overcast
3:15 AM 71.6 °F 68.0 °F 88% 29.92 in 10.0 mi South 9.2 mph - N/A   Overcast
3:35 AM 71.6 °F 69.8 °F 94% 29.91 in 10.0 mi South 5.8 mph - N/A   Overcast
3:55 AM 71.6 °F 69.8 °F 94% 29.90 in 10.0 mi South 6.9 mph - N/A   Overcast
4:15 AM 71.6 °F 69.8 °F 94% 29.89 in 10.0 mi South 6.9 mph - N/A   Overcast
4:35 AM 71.6 °F 69.8 °F 94% 29.90 in 10.0 mi South 5.8 mph - N/A   Overcast
4:55 AM 71.6 °F 69.8 °F 94% 29.90 in 10.0 mi South 6.9 mph - N/A   Overcast
5:15 AM 71.6 °F 69.8 °F 94% 29.89 in 10.0 mi South 9.2 mph 16.1 mph N/A   Overcast
5:35 AM 71.6 °F 69.8 °F 94% 29.89 in 10.0 mi South 9.2 mph - N/A   Overcast
5:55 AM 71.6 °F 69.8 °F 94% 29.88 in 10.0 mi South 8.1 mph - N/A   Overcast
6:15 AM 71.6 °F 69.8 °F 94% 29.88 in 10.0 mi South 8.1 mph 17.3 mph N/A   Overcast
6:35 AM 71.6 °F 69.8 °F 94% 29.88 in 10.0 mi South 9.2 mph - N/A   Overcast
6:55 AM 71.6 °F 69.8 °F 94% 29.87 in 10.0 mi South 13.8 mph 17.3 mph N/A   Overcast
7:15 AM 71.6 °F 69.8 °F 94% 29.88 in 10.0 mi South 10.4 mph - N/A   Overcast
7:35 AM 71.6 °F 69.8 °F 94% 29.88 in 10.0 mi SSW 10.4 mph 20.7 mph N/A Rain Rain
7:55 AM 71.6 °F 69.8 °F 94% 29.89 in 10.0 mi SSW 9.2 mph 17.3 mph N/A   Overcast
8:15 AM 71.6 °F 69.8 °F 94% 29.89 in 10.0 mi SSW 12.7 mph 20.7 mph N/A Rain Light Rain
8:35 AM 71.6 °F 69.8 °F 94% 29.89 in 10.0 mi SSW 10.4 mph - N/A Rain Light Rain
8:55 AM 69.8 °F 69.8 °F 100% 29.89 in 7.0 mi South 9.2 mph 16.1 mph 0.03 in Rain Light Rain
9:15 AM 69.8 °F 69.8 °F 100% 29.90 in 10.0 mi SSW 10.4 mph 16.1 mph N/A   Overcast
9:35 AM 69.8 °F 69.8 °F 100% 29.91 in 10.0 mi SSW 10.4 mph 21.9 mph 0.01 in Rain Light Rain
9:55 AM 69.8 °F 69.8 °F 100% 29.91 in 10.0 mi SSW 9.2 mph 16.1 mph 0.03 in Rain Light Rain
10:15 AM 69.8 °F 69.8 °F 100% 29.91 in 10.0 mi SSW 9.2 mph 19.6 mph N/A Rain Light Rain
10:35 AM 69.8 °F 69.8 °F 100% 29.92 in 2.0 mi SSW 11.5 mph 20.7 mph 0.27 in Rain Heavy Rain
10:55 AM 64.4 °F 64.4 °F 100% 29.94 in 3.0 mi Calm Calm - 0.33 in Rain Rain
11:15 AM 64.4 °F 64.4 °F 100% 29.94 in 5.0 mi SSW 5.8 mph - 0.13 in Rain Heavy Rain
11:35 AM 64.4 °F 64.4 °F 100% 29.94 in 2.5 mi South 6.9 mph - 0.41 in Rain Heavy Rain
11:55 AM 64.4 °F 64.4 °F 100% 29.93 in 1.5 mi South 6.9 mph - 0.70 in Rain Heavy Rain
12:15 PM 66.2 °F 66.2 °F 100% 29.92 in 5.0 mi SSW 9.2 mph - 0.04 in Rain Heavy Rain
12:35 PM 66.2 °F 66.2 °F 100% 29.91 in 10.0 mi SSW 5.8 mph - 0.06 in Rain Light Rain
12:55 PM 68.0 °F 68.0 °F 100% 29.92 in 10.0 mi South 4.6 mph - 0.06 in Rain Light Rain
1:15 PM 68.0 °F 68.0 °F 100% 29.91 in 10.0 mi South 6.9 mph - 0.01 in Rain Light Rain
1:35 PM 68.0 °F 68.0 °F 100% 29.91 in 10.0 mi South 5.8 mph - 0.01 in Rain Light Rain
1:55 PM 68.0 °F 68.0 °F 100% 29.91 in 7.0 mi Calm Calm - 0.04 in Rain Rain
2:15 PM 68.0 °F 68.0 °F 100% 29.91 in 10.0 mi South 3.5 mph - N/A   Mostly Cloudy
2:35 PM 68.0 °F 68.0 °F 100% 29.90 in 10.0 mi Calm Calm - N/A   Mostly Cloudy
2:55 PM 68.0 °F 68.0 °F 100% 29.91 in 10.0 mi South 3.5 mph - N/A   Overcast
3:15 PM 68.0 °F 68.0 °F 100% 29.91 in 10.0 mi Calm Calm - N/A   Mostly Cloudy
3:35 PM 68.0 °F 68.0 °F 100% 29.90 in 10.0 mi Calm Calm - N/A   Mostly Cloudy
3:55 PM 69.8 °F 69.8 °F 100% 29.91 in 10.0 mi SW 3.5 mph - N/A   Overcast
4:15 PM 69.8 °F 69.8 °F 100% 29.91 in 10.0 mi Calm Calm - N/A   Overcast
4:35 PM 69.8 °F 69.8 °F 100% 29.90 in 10.0 mi Calm Calm - N/A   Mostly Cloudy
4:55 PM 69.8 °F 69.8 °F 100% 29.90 in 10.0 mi Calm Calm - N/A   Scattered Clouds
5:15 PM 69.8 °F 69.8 °F 100% 29.90 in 10.0 mi Calm Calm - N/A   Mostly Cloudy
5:35 PM 69.8 °F 69.8 °F 100% 29.91 in 10.0 mi Calm Calm - N/A   Overcast
5:55 PM 68.0 °F 68.0 °F 100% 29.93 in 10.0 mi NNW 5.8 mph - N/A   Overcast
6:15 PM 68.0 °F 68.0 °F 100% 29.93 in 10.0 mi North 3.5 mph - N/A   Overcast
6:35 PM 68.0 °F 66.2 °F 94% 29.93 in 10.0 mi NNE 3.5 mph - N/A   Mostly Cloudy
6:55 PM 68.0 °F 66.2 °F 94% 29.94 in 10.0 mi North 4.6 mph - N/A   Overcast
7:15 PM 66.2 °F 64.4 °F 94% 29.95 in 10.0 mi NNW 3.5 mph - N/A   Overcast
7:35 PM 64.4 °F 60.8 °F 88% 29.95 in 10.0 mi NNW 4.6 mph - N/A   Overcast
7:55 PM 64.4 °F 59.0 °F 83% 29.97 in 10.0 mi North 3.5 mph - N/A   Overcast
8:15 PM 64.4 °F 59.0 °F 83% 29.97 in 10.0 mi North 3.5 mph - N/A   Overcast
8:35 PM 64.4 °F 59.0 °F 83% 29.98 in 10.0 mi Calm Calm - N/A   Overcast
8:55 PM 62.6 °F 59.0 °F 88% 29.99 in 10.0 mi Calm Calm - N/A   Overcast
9:15 PM 64.4 °F 57.2 °F 77% 29.99 in 10.0 mi North 3.5 mph - N/A   Overcast
9:35 PM 64.4 °F 57.2 °F 77% 30.00 in 10.0 mi Calm Calm - N/A   Overcast
9:55 PM 62.6 °F 57.2 °F 82% 30.01 in 10.0 mi North 3.5 mph - N/A Rain Rain
10:15 PM 62.6 °F 55.4 °F 77% 30.02 in 10.0 mi NNW 5.8 mph - N/A   Overcast
10:35 PM 62.6 °F 55.4 °F 77% 30.03 in 10.0 mi North 5.8 mph - N/A   Overcast
10:55 PM 62.6 °F 53.6 °F 72% 30.04 in 10.0 mi North 5.8 mph - N/A   Overcast
11:15 PM 62.6 °F 53.6 °F 72% 30.04 in 10.0 mi North 5.8 mph - N/A   Overcast
11:35 PM 60.8 °F 51.8 °F 72% 30.05 in 10.0 mi North 8.1 mph - N/A   Overcast
11:55 PM 60.8 °F 51.8 °F 72% 30.05 in 10.0 mi North 8.1 mph - N/A   Overcast